contact:dominique.lefevre@mio.osupytheas.fr, maurice.libes@osupytheas.fr, didier.mallarino@osupytheas.fr
Project:EMSO http://www.emso-fr.org/EMSO-France
Depth: 2436.0 m
Title:EMSO Ligure Ouest : Data MII capteur CSTAR
DateTime,Latitude,Longitude,Instrument_Serial,Reference_Counts,Signal_Counts,Corrected_Signal_raw_counts,Calculated_Beam_c_inverse_meters,Internal_thermistor_counts
DateTime,Latitude,Longitude,Instrument_Serial,Reference_Counts,Signal_Counts,Corrected_Signal_raw_counts,Calculated_Beam_c_inverse_meters,Internal_thermistor_counts
2020-01-26T00:01:23,42.805,6.029,CST-1368DR,6896,9664,15247,0.096,551
2020-01-26T00:04:24,42.805,6.029,CST-1368DR,6896,9666,15250,0.095,551
2020-01-26T00:07:26,42.805,6.029,CST-1368DR,6896,9665,15248,0.095,551
2020-01-26T00:10:28,42.805,6.029,CST-1368DR,6896,9666,15250,0.095,551
2020-01-26T00:13:30,42.805,6.029,CST-1368DR,6896,9666,15250,0.095,551
2020-01-26T00:16:32,42.805,6.029,CST-1368DR,6896,9666,15250,0.095,551
2020-01-26T00:19:33,42.805,6.029,CST-1368DR,6896,9666,15250,0.095,551
2020-01-26T00:22:35,42.805,6.029,CST-1368DR,6896,9663,15246,0.096,551
2020-01-26T00:25:37,42.805,6.029,CST-1368DR,6896,9666,15251,0.095,551
2020-01-26T00:28:38,42.805,6.029,CST-1368DR,6896,9666,15251,0.095,551
2020-01-26T00:31:40,42.805,6.029,CST-1368DR,6896,9665,15249,0.095,551
2020-01-26T00:34:42,42.805,6.029,CST-1368DR,6896,9666,15250,0.095,551
2020-01-26T00:37:43,42.805,6.029,CST-1368DR,6896,9666,15250,0.095,551
2020-01-26T00:40:45,42.805,6.029,CST-1368DR,6896,9667,15252,0.094,551
2020-01-26T00:43:47,42.805,6.029,CST-1368DR,6896,9666,15250,0.095,551
2020-01-26T00:46:48,42.805,6.029,CST-1368DR,6896,9667,15252,0.094,550
2020-01-26T00:49:50,42.805,6.029,CST-1368DR,6896,9666,15251,0.095,551
2020-01-26T00:52:51,42.805,6.029,CST-1368DR,6896,9666,15250,0.095,550
2020-01-26T00:55:53,42.805,6.029,CST-1368DR,6896,9666,15250,0.095,551
2020-01-26T00:58:55,42.805,6.029,CST-1368DR,6896,9666,15250,0.095,551
2020-01-26T01:01:56,42.805,6.029,CST-1368DR,6896,9665,15249,0.095,551
2020-01-26T01:04:58,42.805,6.029,CST-1368DR,6896,9660,15241,0.097,551
2020-01-26T01:08:00,42.805,6.029,CST-1368DR,6896,9664,15248,0.095,551
2020-01-26T01:11:01,42.805,6.029,CST-1368DR,6896,9665,15249,0.095,551
2020-01-26T01:14:03,42.805,6.029,CST-1368DR,6896,9664,15248,0.095,551
2020-01-26T01:17:04,42.805,6.029,CST-1368DR,6896,9665,15249,0.095,551
2020-01-26T01:20:06,42.805,6.029,CST-1368DR,6896,9661,15243,0.097,551
2020-01-26T01:23:08,42.805,6.029,CST-1368DR,6896,9666,15250,0.095,551
2020-01-26T01:26:09,42.805,6.029,CST-1368DR,6896,9663,15246,0.096,551
2020-01-26T01:29:11,42.805,6.029,CST-1368DR,6896,9666,15250,0.095,551
2020-01-26T01:32:13,42.805,6.029,CST-1368DR,6896,9662,15244,0.096,551
2020-01-26T01:35:14,42.805,6.029,CST-1368DR,6896,9664,15247,0.096,551
2020-01-26T01:38:16,42.805,6.029,CST-1368DR,6896,9666,15251,0.095,550
2020-01-26T01:41:18,42.805,6.029,CST-1368DR,6896,9666,15251,0.095,551
2020-01-26T01:44:19,42.805,6.029,CST-1368DR,6896,9665,15249,0.095,551
2020-01-26T01:47:21,42.805,6.029,CST-1368DR,6896,9664,15248,0.095,551
2020-01-26T01:50:22,42.805,6.029,CST-1368DR,6896,9664,15248,0.095,551
2020-01-26T01:53:24,42.805,6.029,CST-1368DR,6896,9661,15242,0.097,551
2020-01-26T01:56:26,42.805,6.029,CST-1368DR,6896,9664,15247,0.096,551
2020-01-26T01:59:27,42.805,6.029,CST-1368DR,6896,9664,15248,0.095,551
2020-01-26T02:02:29,42.805,6.029,CST-1368DR,6896,9664,15247,0.096,551
2020-01-26T02:05:31,42.805,6.029,CST-1368DR,6896,9663,15246,0.096,551
2020-01-26T02:08:32,42.805,6.029,CST-1368DR,6896,9664,15248,0.095,551
2020-01-26T02:11:34,42.805,6.029,CST-1368DR,6896,9667,15252,0.094,551
2020-01-26T02:14:36,42.805,6.029,CST-1368DR,6896,9666,15251,0.095,551
2020-01-26T02:17:37,42.805,6.029,CST-1368DR,6896,9666,15250,0.095,551
2020-01-26T02:20:39,42.805,6.029,CST-1368DR,6896,9664,15247,0.096,551
2020-01-26T02:23:41,42.805,6.029,CST-1368DR,6896,9663,15246,0.096,551
2020-01-26T02:26:42,42.805,6.029,CST-1368DR,6896,9665,15249,0.095,550
2020-01-26T02:29:44,42.805,6.029,CST-1368DR,6896,9664,15248,0.095,551
2020-01-26T02:32:45,42.805,6.029,CST-1368DR,6896,9664,15248,0.095,551
2020-01-26T02:35:47,42.805,6.029,CST-1368DR,6896,9663,15246,0.096,551
2020-01-26T02:38:49,42.805,6.029,CST-1368DR,6896,9664,15247,0.096,550
2020-01-26T02:41:50,42.805,6.029,CST-1368DR,6896,9661,15243,0.097,551
2020-01-26T02:44:52,42.805,6.029,CST-1368DR,6896,9663,15246,0.096,551
2020-01-26T02:47:54,42.805,6.029,CST-1368DR,6896,9662,15244,0.096,551
2020-01-26T02:50:55,42.805,6.029,CST-1368DR,6896,9666,15250,0.095,551
2020-01-26T02:53:57,42.805,6.029,CST-1368DR,6896,9664,15248,0.095,551
2020-01-26T02:56:58,42.805,6.029,CST-1368DR,6896,9663,15246,0.096,551
2020-01-26T03:00:00,42.805,6.029,CST-1368DR,6896,9665,15249,0.095,551
2020-01-26T03:03:02,42.805,6.029,CST-1368DR,6896,9664,15248,0.095,551
2020-01-26T03:06:03,42.805,6.029,CST-1368DR,6895,9658,15241,0.097,551
2020-01-26T03:09:05,42.805,6.029,CST-1368DR,6896,9662,15244,0.096,550
2020-01-26T03:12:07,42.805,6.029,CST-1368DR,6895,9663,15248,0.095,551
2020-01-26T03:15:08,42.805,6.029,CST-1368DR,6895,9665,15250,0.095,551
2020-01-26T03:18:10,42.805,6.029,CST-1368DR,6895,9663,15248,0.095,551
2020-01-26T03:21:11,42.805,6.029,CST-1368DR,6896,9663,15246,0.096,551
2020-01-26T03:24:13,42.805,6.029,CST-1368DR,6895,9663,15248,0.095,551
2020-01-26T03:27:15,42.805,6.029,CST-1368DR,6895,9658,15240,0.097,551
2020-01-26T03:30:16,42.805,6.029,CST-1368DR,6895,9664,15249,0.095,551
2020-01-26T03:33:18,42.805,6.029,CST-1368DR,6895,9661,15245,0.096,551
2020-01-26T03:36:20,42.805,6.029,CST-1368DR,6895,9663,15248,0.095,551
2020-01-26T03:39:21,42.805,6.029,CST-1368DR,6895,9663,15248,0.095,551
2020-01-26T03:42:23,42.805,6.029,CST-1368DR,6895,9663,15248,0.095,551
2020-01-26T03:45:25,42.805,6.029,CST-1368DR,6895,9663,15248,0.095,551
2020-01-26T03:48:26,42.805,6.029,CST-1368DR,6895,9663,15248,0.095,551
2020-01-26T03:51:28,42.805,6.029,CST-1368DR,6895,9659,15241,0.097,551
2020-01-26T03:54:29,42.805,6.029,CST-1368DR,6895,9654,15233,0.099,551
2020-01-26T03:57:31,42.805,6.029,CST-1368DR,6895,9663,15247,0.096,551
2020-01-26T04:00:33,42.805,6.029,CST-1368DR,6895,9663,15248,0.095,551
2020-01-26T04:03:35,42.805,6.029,CST-1368DR,6895,9663,15247,0.096,551
2020-01-26T04:06:37,42.805,6.029,CST-1368DR,6895,9664,15250,0.095,551
2020-01-26T04:09:38,42.805,6.029,CST-1368DR,6895,9664,15250,0.095,551
2020-01-26T04:12:40,42.805,6.029,CST-1368DR,6895,9663,15248,0.095,551
2020-01-26T04:15:42,42.805,6.029,CST-1368DR,6895,9665,15250,0.095,551
2020-01-26T04:18:43,42.805,6.029,CST-1368DR,6895,9664,15249,0.095,551
2020-01-26T04:21:45,42.805,6.029,CST-1368DR,6895,9664,15249,0.095,551
2020-01-26T04:24:47,42.805,6.029,CST-1368DR,6895,9664,15250,0.095,551
2020-01-26T04:27:48,42.805,6.029,CST-1368DR,6895,9663,15248,0.095,551
2020-01-26T04:30:50,42.805,6.029,CST-1368DR,6895,9664,15249,0.095,551
2020-01-26T04:33:51,42.805,6.029,CST-1368DR,6895,9664,15249,0.095,551
2020-01-26T04:36:53,42.805,6.029,CST-1368DR,6895,9665,15250,0.095,551
2020-01-26T04:39:55,42.805,6.029,CST-1368DR,6895,9663,15247,0.096,551
2020-01-26T04:42:57,42.805,6.029,CST-1368DR,6895,9661,15245,0.096,551
2020-01-26T04:45:58,42.805,6.029,CST-1368DR,6895,9664,15249,0.095,551
2020-01-26T04:49:00,42.805,6.029,CST-1368DR,6895,9663,15247,0.096,551
2020-01-26T04:52:01,42.805,6.029,CST-1368DR,6895,9664,15250,0.095,551
2020-01-26T04:55:03,42.805,6.029,CST-1368DR,6895,9663,15248,0.095,551
2020-01-26T04:58:05,42.805,6.029,CST-1368DR,6895,9664,15250,0.095,551
2020-01-26T05:01:06,42.805,6.029,CST-1368DR,6895,9665,15251,0.095,550
2020-01-26T05:04:08,42.805,6.029,CST-1368DR,6895,9663,15248,0.095,551
2020-01-26T05:07:10,42.805,6.029,CST-1368DR,6895,9660,15243,0.097,551
2020-01-26T05:10:12,42.805,6.029,CST-1368DR,6895,9663,15248,0.095,551
2020-01-26T05:13:13,42.805,6.029,CST-1368DR,6895,9665,15251,0.095,551
2020-01-26T05:16:15,42.805,6.029,CST-1368DR,6895,9664,15249,0.095,551
2020-01-26T05:19:17,42.805,6.029,CST-1368DR,6895,9664,15250,0.095,551
2020-01-26T05:22:18,42.805,6.029,CST-1368DR,6895,9663,15247,0.096,551
2020-01-26T05:25:20,42.805,6.029,CST-1368DR,6895,9661,15244,0.096,551
2020-01-26T05:28:22,42.805,6.029,CST-1368DR,6895,9665,15251,0.095,551
2020-01-26T05:31:23,42.805,6.029,CST-1368DR,6895,9661,15245,0.096,551
2020-01-26T05:34:25,42.805,6.029,CST-1368DR,6895,9662,15246,0.096,551
2020-01-26T05:37:26,42.805,6.029,CST-1368DR,6895,9664,15249,0.095,551
2020-01-26T05:40:28,42.805,6.029,CST-1368DR,6895,9662,15246,0.096,551
2020-01-26T05:43:30,42.805,6.029,CST-1368DR,6895,9664,15250,0.095,551
2020-01-26T05:46:31,42.805,6.029,CST-1368DR,6895,9657,15239,0.098,551
2020-01-26T05:49:33,42.805,6.029,CST-1368DR,6895,9664,15250,0.095,551
2020-01-26T05:52:35,42.805,6.029,CST-1368DR,6895,9664,15249,0.095,551
2020-01-26T05:55:36,42.805,6.029,CST-1368DR,6895,9664,15250,0.095,551
2020-01-26T05:58:38,42.805,6.029,CST-1368DR,6895,9664,15249,0.095,551
2020-01-26T06:01:40,42.805,6.029,CST-1368DR,6895,9664,15249,0.095,551
2020-01-26T06:04:41,42.805,6.029,CST-1368DR,6895,9665,15250,0.095,551
2020-01-26T06:07:43,42.805,6.029,CST-1368DR,6895,9665,15250,0.095,551
2020-01-26T06:10:44,42.805,6.029,CST-1368DR,6895,9663,15248,0.095,551
2020-01-26T06:13:46,42.805,6.029,CST-1368DR,6895,9664,15250,0.095,551
2020-01-26T06:16:48,42.805,6.029,CST-1368DR,6895,9663,15247,0.096,551
2020-01-26T06:19:49,42.805,6.029,CST-1368DR,6895,9664,15249,0.095,551
2020-01-26T06:22:51,42.805,6.029,CST-1368DR,6895,9662,15246,0.096,551
2020-01-26T06:25:53,42.805,6.029,CST-1368DR,6895,9663,15248,0.095,551
2020-01-26T06:28:54,42.805,6.029,CST-1368DR,6895,9659,15241,0.097,551
2020-01-26T06:31:56,42.805,6.029,CST-1368DR,6895,9663,15247,0.096,551
2020-01-26T06:34:57,42.805,6.029,CST-1368DR,6895,9662,15247,0.096,551
2020-01-26T06:37:59,42.805,6.029,CST-1368DR,6895,9664,15249,0.095,551
2020-01-26T06:41:01,42.805,6.029,CST-1368DR,6895,9663,15247,0.096,551
2020-01-26T06:44:02,42.805,6.029,CST-1368DR,6895,9663,15248,0.095,551
2020-01-26T06:47:04,42.805,6.029,CST-1368DR,6895,9665,15250,0.095,551
2020-01-26T06:50:06,42.805,6.029,CST-1368DR,6894,9664,15251,0.095,551
2020-01-26T06:53:07,42.805,6.029,CST-1368DR,6894,9659,15244,0.096,551
2020-01-26T06:56:09,42.805,6.029,CST-1368DR,6895,9663,15248,0.095,551
2020-01-26T06:59:11,42.805,6.029,CST-1368DR,6895,9663,15248,0.095,551
2020-01-26T07:02:12,42.805,6.029,CST-1368DR,6895,9663,15248,0.095,551
2020-01-26T07:05:14,42.805,6.029,CST-1368DR,6895,9660,15243,0.097,551
2020-01-26T07:08:15,42.805,6.029,CST-1368DR,6895,9661,15245,0.096,551
2020-01-26T07:11:17,42.805,6.029,CST-1368DR,6895,9660,15243,0.097,551
2020-01-26T07:14:19,42.805,6.029,CST-1368DR,6894,9663,15250,0.095,551
2020-01-26T07:17:21,42.805,6.029,CST-1368DR,6895,9665,15250,0.095,551
2020-01-26T07:20:22,42.805,6.029,CST-1368DR,6895,9664,15249,0.095,551
2020-01-26T07:23:24,42.805,6.029,CST-1368DR,6894,9664,15251,0.095,551
2020-01-26T07:26:26,42.805,6.029,CST-1368DR,6894,9663,15249,0.095,551
2020-01-26T07:29:27,42.805,6.029,CST-1368DR,6894,9662,15249,0.095,551
2020-01-26T07:32:29,42.805,6.029,CST-1368DR,6894,9659,15244,0.096,551
2020-01-26T07:35:30,42.805,6.029,CST-1368DR,6894,9664,15251,0.095,551
2020-01-26T07:38:32,42.805,6.029,CST-1368DR,6894,9662,15248,0.095,551
2020-01-26T07:41:34,42.805,6.029,CST-1368DR,6895,9661,15244,0.096,551
2020-01-26T07:44:35,42.805,6.029,CST-1368DR,6894,9660,15246,0.096,551
2020-01-26T07:47:37,42.805,6.029,CST-1368DR,6895,9665,15250,0.095,551
2020-01-26T07:50:39,42.805,6.029,CST-1368DR,6894,9661,15247,0.096,551
2020-01-26T07:53:40,42.805,6.029,CST-1368DR,6894,9661,15247,0.096,551
2020-01-26T07:56:42,42.805,6.029,CST-1368DR,6894,9663,15250,0.095,551
2020-01-26T07:59:44,42.805,6.029,CST-1368DR,6894,9663,15250,0.095,551
2020-01-26T08:02:45,42.805,6.029,CST-1368DR,6894,9663,15250,0.095,551
2020-01-26T08:05:47,42.805,6.029,CST-1368DR,6894,9664,15252,0.094,551
2020-01-26T08:08:49,42.805,6.029,CST-1368DR,6894,9662,15249,0.095,551
2020-01-26T08:11:50,42.805,6.029,CST-1368DR,6894,9663,15250,0.095,551
2020-01-26T08:14:52,42.805,6.029,CST-1368DR,6894,9662,15248,0.095,551
2020-01-26T08:17:54,42.805,6.029,CST-1368DR,6894,9665,15253,0.094,551
2020-01-26T08:20:55,42.805,6.029,CST-1368DR,6894,9663,15251,0.095,551
2020-01-26T08:23:57,42.805,6.029,CST-1368DR,6894,9662,15249,0.095,551
2020-01-26T08:26:58,42.805,6.029,CST-1368DR,6894,9657,15240,0.097,551
2020-01-26T08:30:00,42.805,6.029,CST-1368DR,6894,9662,15249,0.095,551
2020-01-26T08:33:02,42.805,6.029,CST-1368DR,6894,9661,15247,0.096,551
2020-01-26T08:36:03,42.805,6.029,CST-1368DR,6894,9663,15250,0.095,551
2020-01-26T08:39:05,42.805,6.029,CST-1368DR,6894,9663,15250,0.095,551
2020-01-26T08:42:06,42.805,6.029,CST-1368DR,6894,9661,15247,0.096,550
2020-01-26T08:45:08,42.805,6.029,CST-1368DR,6894,9663,15250,0.095,551
2020-01-26T08:48:10,42.805,6.029,CST-1368DR,6894,9662,15248,0.095,551
2020-01-26T08:51:11,42.805,6.029,CST-1368DR,6894,9661,15247,0.096,551
2020-01-26T08:54:13,42.805,6.029,CST-1368DR,6894,9663,15250,0.095,551
2020-01-26T08:57:15,42.805,6.029,CST-1368DR,6894,9663,15249,0.095,551
2020-01-26T09:00:16,42.805,6.029,CST-1368DR,6894,9660,15246,0.096,551
2020-01-26T09:03:18,42.805,6.029,CST-1368DR,6894,9662,15249,0.095,551
2020-01-26T09:06:20,42.805,6.029,CST-1368DR,6894,9662,15249,0.095,551
2020-01-26T09:09:21,42.805,6.029,CST-1368DR,6894,9660,15245,0.096,550
2020-01-26T09:12:23,42.805,6.029,CST-1368DR,6894,9661,15247,0.096,551
2020-01-26T09:15:24,42.805,6.029,CST-1368DR,6894,9661,15247,0.096,551
2020-01-26T09:18:26,42.805,6.029,CST-1368DR,6894,9661,15247,0.096,551
2020-01-26T09:21:28,42.805,6.029,CST-1368DR,6894,9661,15246,0.096,551
2020-01-26T09:24:29,42.805,6.029,CST-1368DR,6894,9659,15244,0.096,551
2020-01-26T09:27:31,42.805,6.029,CST-1368DR,6894,9661,15247,0.096,551
2020-01-26T09:30:33,42.805,6.029,CST-1368DR,6894,9662,15248,0.095,551
2020-01-26T09:33:35,42.805,6.029,CST-1368DR,6894,9662,15248,0.095,550
2020-01-26T09:36:37,42.805,6.029,CST-1368DR,6894,9661,15247,0.096,551
2020-01-26T09:39:38,42.805,6.029,CST-1368DR,6894,9660,15245,0.096,551
2020-01-26T09:42:40,42.805,6.029,CST-1368DR,6894,9661,15247,0.096,551
2020-01-26T09:45:42,42.805,6.029,CST-1368DR,6894,9663,15250,0.095,551
2020-01-26T09:48:44,42.805,6.029,CST-1368DR,6894,9663,15251,0.095,551
2020-01-26T09:51:45,42.805,6.029,CST-1368DR,6894,9662,15248,0.095,551
2020-01-26T09:54:47,42.805,6.029,CST-1368DR,6894,9657,15241,0.097,551
2020-01-26T09:57:48,42.805,6.029,CST-1368DR,6894,9662,15248,0.095,551
2020-01-26T10:00:50,42.805,6.029,CST-1368DR,6894,9661,15247,0.096,551
2020-01-26T10:03:52,42.805,6.029,CST-1368DR,6894,9660,15245,0.096,551
2020-01-26T10:06:53,42.805,6.029,CST-1368DR,6894,9662,15249,0.095,551
2020-01-26T10:09:55,42.805,6.029,CST-1368DR,6894,9662,15248,0.095,551
2020-01-26T10:12:57,42.805,6.029,CST-1368DR,6894,9661,15247,0.096,551
2020-01-26T10:15:58,42.805,6.029,CST-1368DR,6894,9661,15247,0.096,551
2020-01-26T10:19:00,42.805,6.029,CST-1368DR,6894,9663,15250,0.095,551
2020-01-26T10:22:02,42.805,6.029,CST-1368DR,6894,9660,15246,0.096,551
2020-01-26T10:25:03,42.805,6.029,CST-1368DR,6894,9662,15248,0.095,550
2020-01-26T10:28:05,42.805,6.029,CST-1368DR,6894,9659,15243,0.097,551
2020-01-26T10:31:06,42.805,6.029,CST-1368DR,6894,9659,15244,0.096,551
2020-01-26T10:34:08,42.805,6.029,CST-1368DR,6894,9660,15245,0.096,551
2020-01-26T10:37:10,42.805,6.029,CST-1368DR,6894,9662,15248,0.095,551
2020-01-26T10:40:11,42.805,6.029,CST-1368DR,6893,9645,15223,0.102,551
2020-01-26T10:43:13,42.805,6.029,CST-1368DR,6893,9585,15129,0.127,551
2020-01-26T10:46:15,42.805,6.029,CST-1368DR,6892,9471,14950,0.174,551
2020-01-26T10:49:16,42.805,6.029,CST-1368DR,6892,9521,15030,0.153,551
2020-01-26T10:52:18,42.805,6.029,CST-1368DR,6892,9475,14958,0.172,551
2020-01-26T10:55:20,42.805,6.029,CST-1368DR,6892,9533,15049,0.148,551
2020-01-26T10:58:22,42.805,6.029,CST-1368DR,6893,9593,15141,0.124,551
2020-01-26T11:01:23,42.805,6.029,CST-1368DR,6893,9629,15199,0.108,550
2020-01-26T11:04:25,42.805,6.029,CST-1368DR,6893,9649,15231,0.100,551
2020-01-26T11:07:26,42.805,6.029,CST-1368DR,6894,9655,15237,0.098,551
2020-01-26T11:10:28,42.805,6.029,CST-1368DR,6894,9655,15238,0.098,551
2020-01-26T11:13:30,42.805,6.029,CST-1368DR,6893,9655,15239,0.098,551
2020-01-26T11:16:31,42.805,6.029,CST-1368DR,6893,9659,15246,0.096,550
2020-01-26T11:19:33,42.805,6.029,CST-1368DR,6893,9658,15244,0.096,551
2020-01-26T11:22:35,42.805,6.029,CST-1368DR,6893,9657,15243,0.097,551
2020-01-26T11:25:36,42.805,6.029,CST-1368DR,6893,9660,15247,0.096,551
2020-01-26T11:28:38,42.805,6.029,CST-1368DR,6893,9660,15247,0.096,551
2020-01-26T11:31:40,42.805,6.029,CST-1368DR,6893,9660,15247,0.096,551
2020-01-26T11:34:41,42.805,6.029,CST-1368DR,6893,9661,15249,0.095,551
2020-01-26T11:37:43,42.805,6.029,CST-1368DR,6893,9660,15248,0.095,551
2020-01-26T11:40:45,42.805,6.029,CST-1368DR,6893,9661,15249,0.095,551
2020-01-26T11:43:46,42.805,6.029,CST-1368DR,6893,9661,15249,0.095,551
2020-01-26T11:46:48,42.805,6.029,CST-1368DR,6893,9660,15247,0.096,551
2020-01-26T11:49:49,42.805,6.029,CST-1368DR,6893,9661,15249,0.095,551
2020-01-26T11:52:51,42.805,6.029,CST-1368DR,6893,9661,15249,0.095,551
2020-01-26T11:55:53,42.805,6.029,CST-1368DR,6893,9661,15249,0.095,551
2020-01-26T11:58:54,42.805,6.029,CST-1368DR,6893,9661,15248,0.095,551
2020-01-26T12:01:56,42.805,6.029,CST-1368DR,6893,9659,15246,0.096,551
2020-01-26T12:04:58,42.805,6.029,CST-1368DR,6893,9660,15247,0.096,550
2020-01-26T12:07:59,42.805,6.029,CST-1368DR,6893,9661,15248,0.095,551
2020-01-26T12:11:01,42.805,6.029,CST-1368DR,6893,9660,15247,0.096,551
2020-01-26T12:14:03,42.805,6.029,CST-1368DR,6893,9660,15247,0.096,551
2020-01-26T12:17:04,42.805,6.029,CST-1368DR,6893,9659,15246,0.096,551
2020-01-26T12:20:06,42.805,6.029,CST-1368DR,6893,9661,15249,0.095,551
2020-01-26T12:23:08,42.805,6.029,CST-1368DR,6893,9657,15242,0.097,551
2020-01-26T12:26:09,42.805,6.029,CST-1368DR,6893,9660,15247,0.096,551
2020-01-26T12:29:11,42.805,6.029,CST-1368DR,6893,9661,15249,0.095,551
2020-01-26T12:32:13,42.805,6.029,CST-1368DR,6893,9662,15250,0.095,550
2020-01-26T12:35:14,42.805,6.029,CST-1368DR,6893,9661,15249,0.095,551
2020-01-26T12:38:16,42.805,6.029,CST-1368DR,6893,9647,15227,0.101,551
2020-01-26T12:41:17,42.805,6.029,CST-1368DR,6893,9660,15247,0.096,551
2020-01-26T12:44:19,42.805,6.029,CST-1368DR,6893,9661,15249,0.095,551
2020-01-26T12:47:21,42.805,6.029,CST-1368DR,6893,9661,15249,0.095,551
2020-01-26T12:50:22,42.805,6.029,CST-1368DR,6893,9657,15243,0.097,551
2020-01-26T12:53:24,42.805,6.029,CST-1368DR,6893,9657,15243,0.097,550
2020-01-26T12:56:26,42.805,6.029,CST-1368DR,6893,9660,15247,0.096,551
2020-01-26T12:59:27,42.805,6.029,CST-1368DR,6893,9660,15248,0.095,551
2020-01-26T13:02:29,42.805,6.029,CST-1368DR,6893,9661,15248,0.095,551
2020-01-26T13:05:31,42.805,6.029,CST-1368DR,6893,9659,15246,0.096,551
2020-01-26T13:08:32,42.805,6.029,CST-1368DR,6893,9660,15248,0.095,551
2020-01-26T13:11:34,42.805,6.029,CST-1368DR,6893,9658,15245,0.096,551
2020-01-26T13:14:36,42.805,6.029,CST-1368DR,6893,9659,15246,0.096,551
2020-01-26T13:17:38,42.805,6.029,CST-1368DR,6893,9660,15247,0.096,551
2020-01-26T13:20:39,42.805,6.029,CST-1368DR,6893,9661,15249,0.095,551
2020-01-26T13:23:41,42.805,6.029,CST-1368DR,6893,9658,15244,0.096,551
2020-01-26T13:26:43,42.805,6.029,CST-1368DR,6893,9659,15246,0.096,551
2020-01-26T13:29:44,42.805,6.029,CST-1368DR,6893,9659,15246,0.096,551
2020-01-26T13:32:46,42.805,6.029,CST-1368DR,6893,9660,15247,0.096,551
2020-01-26T13:35:48,42.805,6.029,CST-1368DR,6893,9658,15244,0.096,551
2020-01-26T13:38:49,42.805,6.029,CST-1368DR,6893,9660,15248,0.095,551
2020-01-26T13:41:51,42.805,6.029,CST-1368DR,6893,9658,15245,0.096,551
2020-01-26T13:44:53,42.805,6.029,CST-1368DR,6893,9660,15247,0.096,551
2020-01-26T13:47:55,42.805,6.029,CST-1368DR,6893,9657,15243,0.097,551
2020-01-26T13:50:56,42.805,6.029,CST-1368DR,6893,9660,15248,0.095,551
2020-01-26T13:53:58,42.805,6.029,CST-1368DR,6893,9658,15245,0.096,551
2020-01-26T13:57:00,42.805,6.029,CST-1368DR,6893,9662,15250,0.095,551
2020-01-26T14:00:02,42.805,6.029,CST-1368DR,6893,9660,15247,0.096,551
2020-01-26T14:03:03,42.805,6.029,CST-1368DR,6893,9661,15249,0.095,551
2020-01-26T14:06:05,42.805,6.029,CST-1368DR,6893,9661,15249,0.095,551
2020-01-26T14:09:07,42.805,6.029,CST-1368DR,6893,9661,15248,0.095,551
2020-01-26T14:12:08,42.805,6.029,CST-1368DR,6893,9660,15248,0.095,551
2020-01-26T14:15:10,42.805,6.029,CST-1368DR,6893,9660,15247,0.096,551
2020-01-26T14:18:11,42.805,6.029,CST-1368DR,6893,9660,15248,0.095,551
2020-01-26T14:21:13,42.805,6.029,CST-1368DR,6893,9660,15247,0.096,551
2020-01-26T14:24:15,42.805,6.029,CST-1368DR,6893,9661,15249,0.095,551
2020-01-26T14:27:16,42.805,6.029,CST-1368DR,6893,9660,15248,0.095,551
2020-01-26T14:30:18,42.805,6.029,CST-1368DR,6893,9660,15247,0.096,551
2020-01-26T14:33:20,42.805,6.029,CST-1368DR,6893,9659,15246,0.096,551
2020-01-26T14:36:21,42.805,6.029,CST-1368DR,6893,9660,15248,0.095,551
2020-01-26T14:39:23,42.805,6.029,CST-1368DR,6893,9659,15246,0.096,551
2020-01-26T14:42:25,42.805,6.029,CST-1368DR,6893,9659,15246,0.096,551
2020-01-26T14:45:26,42.805,6.029,CST-1368DR,6893,9660,15248,0.095,551
2020-01-26T14:48:28,42.805,6.029,CST-1368DR,6893,9659,15246,0.096,551
2020-01-26T14:51:29,42.805,6.029,CST-1368DR,6893,9661,15248,0.095,551
2020-01-26T14:54:31,42.805,6.029,CST-1368DR,6893,9659,15246,0.096,551
2020-01-26T14:57:33,42.805,6.029,CST-1368DR,6893,9659,15246,0.096,551
2020-01-26T15:00:35,42.805,6.029,CST-1368DR,6893,9658,15244,0.096,551
2020-01-26T15:03:37,42.805,6.029,CST-1368DR,6893,9659,15246,0.096,551
2020-01-26T15:06:39,42.805,6.029,CST-1368DR,6893,9659,15246,0.096,551
2020-01-26T15:09:40,42.805,6.029,CST-1368DR,6893,9658,15244,0.096,550
2020-01-26T15:12:42,42.805,6.029,CST-1368DR,6893,9659,15246,0.096,551
2020-01-26T15:15:44,42.805,6.029,CST-1368DR,6892,9652,15237,0.098,551
2020-01-26T15:18:45,42.805,6.029,CST-1368DR,6892,9658,15247,0.096,551
2020-01-26T15:21:47,42.805,6.029,CST-1368DR,6892,9659,15248,0.095,551
2020-01-26T15:24:49,42.805,6.029,CST-1368DR,6893,9658,15244,0.096,551
2020-01-26T15:27:50,42.805,6.029,CST-1368DR,6893,9658,15244,0.096,551
2020-01-26T15:30:52,42.805,6.029,CST-1368DR,6892,9658,15246,0.096,551
2020-01-26T15:33:54,42.805,6.029,CST-1368DR,6893,9659,15246,0.096,551
2020-01-26T15:36:55,42.805,6.029,CST-1368DR,6892,9660,15250,0.095,551
2020-01-26T15:39:57,42.805,6.029,CST-1368DR,6892,9659,15248,0.095,551
2020-01-26T15:42:58,42.805,6.029,CST-1368DR,6892,9658,15246,0.096,551
2020-01-26T15:46:00,42.805,6.029,CST-1368DR,6892,9658,15246,0.096,551
2020-01-26T15:49:02,42.805,6.029,CST-1368DR,6892,9658,15247,0.096,551
2020-01-26T15:52:03,42.805,6.029,CST-1368DR,6892,9659,15248,0.095,550
2020-01-26T15:55:05,42.805,6.029,CST-1368DR,6892,9658,15246,0.096,551
2020-01-26T15:58:07,42.805,6.029,CST-1368DR,6892,9654,15240,0.097,550
2020-01-26T16:01:08,42.805,6.029,CST-1368DR,6892,9659,15248,0.095,551
2020-01-26T16:04:10,42.805,6.029,CST-1368DR,6892,9657,15244,0.096,551
2020-01-26T16:07:12,42.805,6.029,CST-1368DR,6892,9659,15248,0.095,551
2020-01-26T16:10:13,42.805,6.029,CST-1368DR,6892,9659,15248,0.095,551
2020-01-26T16:13:15,42.805,6.029,CST-1368DR,6892,9658,15246,0.096,551
2020-01-26T16:16:17,42.805,6.029,CST-1368DR,6892,9657,15244,0.096,551
2020-01-26T16:19:18,42.805,6.029,CST-1368DR,6892,9658,15246,0.096,551
2020-01-26T16:22:20,42.805,6.029,CST-1368DR,6892,9659,15248,0.095,551
2020-01-26T16:25:22,42.805,6.029,CST-1368DR,6892,9657,15245,0.096,551
2020-01-26T16:28:23,42.805,6.029,CST-1368DR,6892,9660,15249,0.095,551
2020-01-26T16:31:25,42.805,6.029,CST-1368DR,6892,9659,15248,0.095,551
2020-01-26T16:34:26,42.805,6.029,CST-1368DR,6892,9659,15248,0.095,551
2020-01-26T16:37:28,42.805,6.029,CST-1368DR,6892,9655,15241,0.097,551
2020-01-26T16:40:30,42.805,6.029,CST-1368DR,6892,9657,15245,0.096,551
2020-01-26T16:43:32,42.805,6.029,CST-1368DR,6892,9659,15248,0.095,551
2020-01-26T16:46:33,42.805,6.029,CST-1368DR,6892,9653,15238,0.098,551
2020-01-26T16:49:35,42.805,6.029,CST-1368DR,6892,9658,15246,0.096,551
2020-01-26T16:52:36,42.805,6.029,CST-1368DR,6892,9657,15244,0.096,551